User: anonymous   Login
Location: Bangkok
(13.7500°N, 100.5170°E)
Time: 12:08:16
(UTC+07:00)
Language:

SPOT 1/Viking Rocket - Orbit

View from above orbital plane
View from above orbital plane
View from above satellite
View from above satellite

Ground track
Ground track

The orbit data is extracted from the following two-line orbital elements,

1 16615U 86019C   16240.84634582  .00000019  00000-0  23779-4 0  9998
2 16615  98.6523 303.7941 0011790 183.3200 308.4315 14.31608238597524
Epoch (UTC): 27 August 2016 20:18:44
Eccentricity: 0.0011790
inclination: 98.6523°
perigee height: 778 km
apogee height: 795 km
right ascension of ascending node: 303.7941°
argument of perigee: 183.3200°
revolutions per day: 14.31608238
mean anomaly at epoch: 308.4315°
orbit number at epoch: 59752

The dashed part of the orbit path shows where the satellite is in the earth's shadow,  

DLR